#timestamp,LO_Frequency,Hit,StdDev 
1664697615.8,286047001.1,N
1664697635.6,286047001.1,N
1664697655.5,286046998.8,N
1664697675.3,286047000.6,N
1664697695.1,286047000.9,N
1664697715.9,286046999.9,N
1664697735.7,286047000.5,N
1664697755.6,286047000.5,N
1664697775.4,286047000.5,N
1664697795.2,286046999.8,N
1664697815.1,286047001.2,N
1664697816.0,286047001.2,N
1664697835.8,286046998.1,N
1664697855.6,286047000.5,N
1664697875.5,286046998.6,N
1664697895.3,286047001.1,N
1664697915.2,286047000.5,N
1664697935.9,286047001.6,N
1664697955.7,286047001.3,N
1664697975.6,286047003.3,N
1664697995.4,286047003.0,N
1664698015.2,286047003.4,N
1664698035.1,286047003.8,N
1664698036.0,286047003.8,N
1664698055.8,286047004.0,N
1664698075.7,286047002.1,N
1664698095.5,286047002.6,N
1664698115.3,286047001.7,N
1664698135.2,286047003.5,N
1664698155.0,286047004.4,N
1664698155.9,286047004.4,N
1664698175.7,286047001.5,N
1664698195.6,286047002.1,N
1664698215.4,286047001.7,N
1664698235.3,286047001.9,N
1664698255.1,286047001.3,N
1664698275.8,286047003.1,N
1664698295.7,286047002.9,N
1664698315.5,286047003.3,N
1664698335.4,286047001.4,N
1664698355.2,286047001.3,N
1664698375.0,286046999.9,N
1664698375.9,286046999.9,N
1664698395.8,286047000.2,N
1664698415.6,286046999.2,N
1664698435.5,286047001.2,N
1664698455.3,286046999.8,N
1664698475.1,286047000.1,N
1664698495.9,286047002.4,N
1664698515.7,286046999.8,N
1664698535.5,286047001.9,N
1664698555.4,286047002.5,N
1664698575.2,286047001.4,N
1664698595.1,286047004.0,N
1664698596.0,286047004.0,N
1664698615.8,286047003.7,N
1664698635.6,286047005.6,Y
1664698655.5,286047001.6,P
1664698675.3,286047002.1,P
1664698695.2,286046999.7,N
1664698715.9,286047002.8,N
1664698735.7,286047000.3,N
1664698755.6,286047002.4,N
1664698775.4,286047001.7,N
1664698795.3,286047003.6,Y
1664698815.9,286047001.7,P
1664698835.7,286047003.9,P
1664698855.6,286047001.3,N
1664698875.4,286047002.7,N
1664698895.3,286047000.2,N
1664698915.1,286047002.5,N
1664698916.0,286047002.5,N
1664698935.8,286047002.8,N
1664698955.7,286047002.0,N
1664698975.5,286047002.7,N
1664698995.3,286047001.2,N
1664699015.2,286047001.2,N
1664699035.0,286047000.2,N
1664699035.9,286047000.2,N
1664699055.8,286047000.1,N
1664699075.6,286046999.9,N
1664699095.4,286047000.2,N
1664699115.3,286047000.1,N
1664699135.1,286046999.9,N
1664699155.9,286046999.1,N
1664699175.7,286046998.0,N
1664699195.5,286046995.5,Y
1664699215.4,286046993.3,P
1664699235.2,286046993.7,N
1664699255.1,286046993.9,N
1664699256.0,286046993.9,N
1664699275.8,286046993.8,N
1664699295.6,286046994.6,N
1664699315.5,286046994.3,N
1664699335.3,286046992.1,Y
1664699355.1,286046999.4,P
1664699375.9,286046998.4,N
1664699395.7,286046999.5,N
1664699415.6,286046999.1,N
1664699435.4,286046998.5,N
1664699455.2,286046998.7,N
1664699475.1,286046998.7,N
1664699476.0,286046998.7,N
1664699495.8,286046998.9,N
1664699515.7,286046999.4,N
1664699535.5,286046997.6,N
1664699555.3,286046997.6,N
1664699575.2,286046995.7,Y
1664699595.0,286046999.4,P
1664699595.9,286046999.4,N
1664699615.8,286047001.0,N
1664699635.6,286046998.8,N
1664699655.4,286046999.3,N
1664699675.3,286046999.4,N
1664699695.1,286047001.0,N
1664699715.9,286046998.4,N
1664699735.7,286046999.2,N
1664699755.5,286046996.7,Y
1664699775.4,286046998.5,P
1664699795.2,286047002.2,P
1664699815.0,286046999.9,N
1664699815.9,286046999.9,N
1664699835.8,286047002.8,N
1664699855.6,286046999.9,N
1664699875.5,286047000.0,N
1664699895.3,286047000.2,N
1664699915.1,286047000.4,N
1664699935.9,286046999.1,N
1664699955.7,286046999.2,N
1664699975.5,286046996.6,N
1664699995.4,286046997.0,N
1664700015.2,286046995.2,Y
1664700035.1,286046998.0,P
1664700036.0,286046998.0,N
1664700055.8,286046995.9,P
1664700075.6,286046995.3,Y
1664700095.5,286046998.6,P
1664700115.3,286047002.7,P
1664700135.2,286046998.1,N
1664700155.9,286046996.9,N
1664700175.7,286046996.8,N
1664700195.6,286046996.9,N
1664700215.4,286046994.9,N
1664700235.2,286046995.0,N
1664700255.1,286046999.4,N
1664700256.0,286046999.4,N
1664700275.8,286046999.9,N
1664700295.7,286047002.5,N
1664700315.5,286047002.3,N
1664700335.3,286047000.3,N
1664700355.2,286047000.2,N
1664700375.0,286047000.0,N
1664700375.9,286047000.0,N
1664700395.7,286047001.8,N
1664700415.6,286047003.9,N
1664700435.4,286047004.0,N
1664700455.3,286047003.8,N
1664700475.1,286047003.3,N
1664700495.8,286047002.1,N
1664700515.7,286047002.6,N
1664700535.5,286047002.3,N
1664700555.4,286047001.4,N
1664700575.2,286047002.1,N
1664700595.0,286047002.7,N
1664700595.9,286047002.7,N
1664700615.8,286047002.3,N
1664700635.6,286047002.4,N
1664700655.4,286047002.5,N
1664700675.3,286047000.4,N
1664700695.1,286047000.3,N
1664700715.9,286047000.1,N
1664700735.7,286047000.0,N
1664700755.5,286046999.7,N
1664700775.4,286047001.6,N
1664700795.2,286047002.8,N
1664700815.0,286046999.7,N
1664700815.9,286046999.7,N
1664700835.8,286047002.4,N
1664700855.6,286047000.2,N
1664700875.5,286047002.1,N
1664700895.3,286047002.7,N
1664700915.1,286047001.6,N
1664700935.9,286047004.1,Y
1664700955.7,286047002.4,P
1664700975.5,286047002.8,P
1664700995.4,286046998.5,P
1664701015.2,286046998.1,N
1664701035.1,286047002.3,N
1664701036.0,286047002.3,N
1664701055.8,286047001.3,N
1664701075.6,286047003.8,N
1664701095.5,286047003.1,N
1664701115.3,286047006.0,Y
1664701135.2,286047004.1,P
1664701155.9,286047005.9,P
1664701175.7,286047003.6,N
1664701195.6,286047005.1,Y
